Theta_e
325 324 323 320 317 314 314 315 315 316 314 314 317 320 320 321 321 326 325 326 327 325 325 323 321 320 318 316 315 314 312 310
326 325 324 321 319 318 318 318 320 319 319 320 325 320 321 321 323 327 328 327 327 325 326 323 321 320 318 317 315 311 310 309
326 325 326 324 322 322 324 324 324 323 324 326 325 322 321 322 326 327 326 325 326 325 325 323 322 320 318 316 315 311 310 308
328 327 326 326 325 325 326 326 326 325 326 325 326 322 321 322 328 326 327 328 327 325 324 324 322 320 318 316 314 311 310 309
327 327 328 326 327 326 325 324 325 325 326 326 326 322 321 324 329 329 327 327 328 326 324 323 321 320 319 316 313 310 309 310
326 327 328 329 329 328 327 327 327 327 327 328 327 323 322 323 327 328 329 329 328 326 325 323 321 319 317 315 312 310 308 309
328 327 326 328 328 329 329 328 328 327 328 327 327 325 324 326 328 328 329 327 326 327 324 322 320 318 316 312 310 308 308 309
328 328 327 327 328 328 330 330 329 329 329 330 328 327 326 327 327 329 329 328 327 325 323 320 319 318 317 313 308 307 307 306
329 327 329 329 328 329 329 329 329 329 329 330 330 328 329 330 328 329 328 327 324 323 321 319 318 318 314 311 307 306 304 305
329 328 328 330 330 330 330 330 330 329 329 329 330 331 330 329 321 328 328 324 322 321 318 317 317 313 311 307 306 305 303 305
327 329 329 329 330 332 333 332 332 331 331 331 331 331 330 327 325 329 327 322 320 318 315 316 311 309 308 305 305 303 303 303
327 326 326 328 330 330 334 334 333 333 332 333 332 330 329 323 327 330 325 321 319 315 313 311 309 306 304 304 303 302 302 303
327 328 326 326 327 330 334 335 334 335 335 334 332 331 331 331 330 327 324 321 317 314 311 309 307 305 304 303 301 301 302 302
327 328 328 327 327 328 330 333 335 335 335 334 332 332 331 329 326 323 321 319 316 314 312 309 306 304 303 301 301 300 301 301
324 328 329 329 329 330 330 331 331 332 332 332 330 327 325 325 322 321 319 317 316 314 312 308 305 303 302 301 301 302 300 299
323 329 330 330 330 330 331 331 330 329 329 327 325 323 322 321 319 318 315 312 311 309 306 304 303 301 301 301 300 299 299 298
324 326 331 331 330 330 329 327 326 326 325 323 322 321 320 317 316 314 312 308 306 303 302 301 300 300 300 299 298 298 298 298
327 329 330 330 328 326 324 322 321 320 318 317 316 315 312 310 308 307 306 304 302 300 299 299 298 298 298 298 298 298 298 297
325 323 323 322 321 319 318 318 316 315 314 313 312 310 308 306 304 302 301 300 299 299 298 298 298 298 297 297 297 297 296 297
Wind_Speed
23 25 23 25 26 28 29 31 30 27 32 33 27 20 19 22 19 21 21 23 19 20 16 18 17 14 15 14 12 11 7 12
26 26 29 27 26 28 28 27 27 29 27 30 25 26 24 25 25 25 19 21 24 20 17 18 17 17 18 17 15 12 12 8
22 28 28 33 32 29 30 30 29 29 26 23 23 24 24 25 23 22 19 27 23 23 21 20 18 19 18 19 16 15 14 14
18 25 30 31 35 34 32 33 35 35 32 29 28 26 27 27 27 24 22 22 20 21 22 17 19 21 20 20 20 17 15 13
20 21 26 33 34 36 34 35 35 34 33 28 27 23 21 23 25 25 22 22 21 18 20 21 17 19 14 18 17 17 14 12
21 22 30 32 33 36 37 34 35 34 35 33 28 27 27 28 22 22 23 21 22 21 19 20 19 14 11 9 12 14 14 8
19 29 31 30 33 32 34 33 33 34 34 35 30 27 25 23 24 23 26 26 24 25 20 17 20 19 19 19 19 22 18 12
16 20 24 31 34 36 33 34 32 33 33 33 37 30 28 26 23 31 27 25 26 29 27 27 28 26 29 28 24 21 20 13
17 17 27 33 37 38 38 37 36 35 34 33 33 39 30 21 26 24 27 30 33 31 30 30 29 29 30 26 30 27 24 20
20 18 22 29 35 39 40 37 36 33 33 35 38 31 32 25 34 32 26 30 31 28 30 32 27 27 27 31 31 24 21 18
3 15 19 25 30 38 43 45 40 36 33 34 34 33 35 29 29 33 22 27 25 25 28 24 24 25 30 32 26 23 17 15
3 3 7 11 26 30 34 32 31 28 31 34 35 40 40 25 31 25 22 17 17 20 20 23 27 24 28 27 25 19 18 16
6 4 2 5 6 6 22 27 25 26 27 24 27 30 24 25 26 21 18 15 17 17 20 25 22 25 27 28 23 16 17 15
7 6 5 5 4 4 5 10 14 14 16 17 15 20 21 21 18 18 14 13 14 17 20 23 25 24 22 24 17 19 16 17
6 10 7 9 10 8 6 7 5 8 10 10 19 16 13 9 9 10 13 15 16 16 20 25 23 20 21 18 19 19 16 11
5 8 9 11 11 11 13 11 10 11 12 20 21 15 10 10 11 10 8 8 9 11 14 15 16 18 18 18 19 20 16 13
7 5 12 9 12 15 16 15 13 13 13 16 14 14 15 15 15 14 12 11 10 9 11 13 15 19 21 19 19 15 12 14
7 8 9 12 15 19 17 17 17 17 17 15 15 15 15 15 14 14 14 13 12 11 13 15 17 16 17 19 16 13 12 15
8 8 12 17 19 19 20 19 19 20 18 17 16 16 17 16 16 15 14 14 12 13 12 13 13 11 11 10 10 12 15 18
Wind_Direction
141 144 151 159 164 163 166 172 176 179 177 184 183 213 226 220 209 217 206 204 208 205 217 199 196 196 203 201 200 200 194 206
156 159 156 159 168 169 172 183 184 181 183 196 212 199 211 214 225 209 215 209 198 204 214 196 207 207 207 204 198 189 210 215
165 162 166 166 173 184 186 186 189 192 196 208 214 206 214 218 220 215 209 216 197 202 209 205 213 208 215 205 195 200 210 205
169 176 172 173 176 188 192 189 191 197 200 203 214 207 210 214 212 218 215 208 201 204 214 216 209 209 215 204 202 207 208 191
170 181 183 184 183 188 195 195 197 202 207 211 207 202 212 219 200 207 210 215 214 211 217 216 215 218 228 212 212 218 227 198
177 182 190 189 189 191 197 201 200 202 206 218 211 202 211 214 216 195 194 199 207 219 227 219 213 215 222 211 209 222 218 230
184 182 187 193 194 198 199 206 207 209 206 211 224 208 213 220 207 205 203 217 222 211 213 214 203 210 212 211 209 210 202 211
192 185 185 188 193 195 200 204 214 212 210 207 213 225 217 222 227 210 194 200 198 199 203 205 206 218 226 216 212 204 215 221
198 202 187 189 192 194 198 202 209 216 211 209 209 212 218 222 240 245 206 208 204 207 210 216 220 225 220 212 209 207 214 240
193 210 197 190 191 193 196 200 207 214 215 210 212 210 205 211 250 246 215 203 207 209 216 214 234 232 218 209 209 217 226 236
201 204 204 196 194 191 196 198 198 205 214 212 210 208 199 221 230 242 204 206 211 218 223 232 216 220 218 215 217 215 225 234
157 296 285 233 207 205 194 194 195 199 208 210 207 211 207 221 219 216 201 212 227 225 224 208 211 216 214 214 207 220 219 235
152 161 212 268 258 230 173 188 198 206 218 204 206 212 219 209 204 210 220 223 215 214 208 211 214 209 211 210 211 215 217 220
141 149 160 185 195 214 213 175 187 203 228 210 202 197 197 179 181 195 210 228 225 216 211 202 197 202 210 209 218 211 210 195
180 161 162 160 160 158 153 139 182 206 209 178 158 147 159 155 181 189 193 201 207 210 209 200 203 210 211 211 205 209 197 192
193 153 149 141 134 134 129 124 107 114 120 120 127 122 121 146 169 182 190 200 203 208 207 211 212 210 209 190 191 188 192 225
176 187 136 141 142 129 120 121 125 124 120 105 109 129 140 138 142 156 165 157 156 173 179 189 191 189 188 196 194 195 236 238
168 137 125 141 129 126 129 133 133 123 115 122 127 127 121 120 123 126 133 140 150 156 162 169 177 175 184 195 204 211 232 263
141 125 127 124 131 133 137 135 131 132 130 127 127 129 128 129 125 124 129 132 136 143 152 161 166 185 195 220 231 247 272 286